Location: D�derode
(51.8092°N, 10.1065°E)
Time: 06:01:32
(UTC+00:00)

CZ-4B R/B - Pass Details

Date: 01 December 2020
Orbit: 389 x 457 km, 97.6° (Epoch: 23 January)

Event Time Altitude Azimuth Distance (km) Brightness Sun altitude
Exits shadow 16:56:59 36° 69° (ENE) 659 1.7 -15.3°
Maximum altitude 16:57:34 41° 100° (E) 604 1.6 -15.4°
Drops below altitude 10° 17:00:35 10° 172° (S) 1,477 4.1 -15.8°
Sets 17:02:39 0° 180° (S) 2,347 5.2 -16.2°
